Starlink 30352

operational
NORAD ID: 57736 Int'l Des: 2023-131 Owner: SPXS Country: US Constellation: starlink
LEOCIRCULAR

关于 Starlink 30352

正在加载描述...

实时位置

正在加载3D地球...

即将过境

高度历史

Altitude vs Time

uPlot chart will show altitude changes over time

两行轨道根数

1 57736U 23131E 25304.55881399 .00000191 00000-0 29181-4 0 9996
2 57736 43.0018 153.0943 0000981 261.4159 98.6572 15.02536087120509
Epoch: Oct 31, 2025 • Age: 23 hours

当前状态

高度 562.0 km
速度 7.59 km/s
星下点 39.20°N, 13.34°W
发射日期 Sep 1, 2023
运行时间 2.1 years
类型 internet

技术详情

分类 Payload
质量 730.00 kg
干质量 700.00 kg
总质量 730.00 kg
长度 0.30 m
直径 4.10 m
跨度 29.00 m
形状 Box + pan
制造商 SPXS
平台类型 Starlink V2M
阶段状态 In Orbit
所有者/国家 SPXS/US

大型星座

Loading constellations...